Tracking 28052 objects as of 23-Sep-2023
HD Live streaming from Space Station
objects crossing your sky now

SL-8 DEB

Track SL-8 DEB now!
10-day predictions


NORAD ID: 12404
Int'l Code: 1980-022C
Perigee: 766.6 km
Apogee: 780.9 km
Inclination: 82.9 °
Period: 100.2 minutes
Semi major axis: 7144 km
RCS: 0.0128 m2 (small)
Launch date: March 17, 1980
Source: Commonwealth of Independent States (former USSR) (CIS)
Launch site: PLESETSK MISSILE AND SPACE COMPLEX (PKMTR)

Note: This is SATELLITE DEBRIS
Your satellite tracking list
Your tracking list is empty




NASA's NSSDC Master Catalog

Two Line Element Set (TLE):
1 12404U 80022C   23265.17094200  .00006034  00000-0  20070-2 0  9998
2 12404  82.9185 325.6218 0009964 314.2467  45.7905 14.37542555222410
Source of the keplerian elements: AFSPC